Other Public Products
Issued by NWS Grand Forks, ND

Home | Current Version | Previous Version | Text Only | Print | Product List | Glossary On
Versions: 1 2 3 4 5 6 7 8 9 10 11 12 13 14 15 16 17 18 19 20 21 22 23 24 25 26 27 28 29 30 31 32 33 34 35 36 37 38 39 40 41 42 43 44 45 46 47 48 49 50
135
FPUS83 KFGF 252010
OPUFGF
PRAIRIE TO PINES WEATHER ROUNDUP
NATIONAL WEATHER SERVICE EASTERN NORTH DAKOTA/GRAND FORKS ND
300 PM CDT THU AUG 25 2016

 **SATELLITE DATA USED TO AUGMENT SKY COVER AT AUTOMATED STATIONS**
 *****  WEATHER ACROSS EASTERN NORTH DAKOTA  *****

CITY           SKY/WX    TMP DP  RH WIND       PRES   REMARKS
GRAND FORKS    PTSUNNY   69  50  50 NW17      30.04R
GRAND FORKS AF MOSUNNY   67  50  53 N15G21    30.06R
GRAND CITY NWS NOT AVBL
BUXTON           N/A     73  50  44 NW15        N/A
DEVILS LAKE    CLOUDY    65  49  56 NW9       30.08F
FARGO          PTSUNNY   69  50  50 NW10      30.06S
WAHPETON ARPT  CLOUDY    64  52  63 W13G21    30.09S
$$

 *****  WEATHER ACROSS CENTRAL AND WESTERN NORTH DAKOTA  *****

CITY           SKY/WX    TMP DP  RH WIND       PRES   REMARKS
JAMESTOWN      CLOUDY    65  52  62 NW12      30.11R
BISMARCK       CLOUDY    68  48  48 N12       30.16F
MINOT          MOSUNNY   72  41  32 W15       30.10F
MINOT AFB      SUNNY     72  42  34 NW14G21   30.08F
GARRISON         N/A     67  45  45 NW13      30.13F
WILLISTON      PTSUNNY   74  39  28 W10       30.14F
DICKINSON      CLOUDY    68  36  30 NW10      30.17F
HETTINGER      PTSUNNY   66  42  41 NW7       30.22F
$$

 *****  OTHER OBSERVATIONS NORTHEAST NORTH DAKOTA  *****

CITY           SKY/WX    TMP DP  RH WIND       PRES   REMARKS
WALHALLA       NOT AVBL
LANGDON        CLOUDY    70  46  43 W13G21    30.06S
CAVALIER       MOCLDY    66  48  52 N10       30.03S
GRAFTON        FAIR      70  46  43 NW14G21   30.05S
CANDO          NOT AVBL
FORT TOTTEN      N/A     70  55  59 NW7       29.95S
ROLLA          FAIR      66  41  39 NW15G23   30.09S
RUGBY          NOT AVBL
 ***** THE ABOVE OBSERVATIONS ARE NON NWS ARE NOT QUALITY
        CONTROLLED AND MAY MIS-REPORT RAIN FOR SNOW...
$$

 *****  OTHER OBSERVATIONS SOUTHEAST NORTH DAKOTA *****

CITY           SKY/WX    TMP DP  RH WIND       PRES   REMARKS
COOPERSTOWN    NOT AVBL
VALLEY CITY    CLOUDY    64  50  59 NW12      30.12R
OAKES            N/A    N/A N/A N/A MISG        N/A
GWINNER        CLOUDY    64  57  77 W9        30.12S
SHEYENNE NWR     N/A     66  53  63 NW9       29.95
BUFFALO          N/A     67  44  42 NW12        N/A
WYNDMERE       NOT AVBL
 ***** THE ABOVE OBSERVATIONS ARE NON NWS ARE NOT QUALITY
       CONTROLLED AND MAY MIS-REPORT RAIN FOR SNOW...
$$

  *****  WEATHER ACROSS NORTHERN MINNESOTA  *****

CITY           SKY/WX    TMP DP  RH WIND       PRES   REMARKS
FLAG ISLAND    PTSUNNY   61  55  82 NW8       29.95S
WARROAD        RAIN      61  55  82 NW10        N/A
ROSEAU         MOSUNNY   66  54  63 NW14G20   29.99R
HALLOCK        MOSUNNY   70  48  46 N15       30.01F
THF RVR FALLS  CLOUDY    68  50  52 NW16G25   30.03S
HALSTAD          N/A     67  50  54 N10         N/A
FOSSTON        CLOUDY    64  54  68 NW14      30.05R
BAUDETTE       CLOUDY    64  56  75 NW18      29.95R
WASKISH        CLOUDY    63  57  82 W14G22    29.97R
CROOKSTON      PTSUNNY   66  48  52 N15G21    30.04S
$$
  *****  WEATHER ACROSS CENTRAL AND WEST MINNESOTA  *****

CITY           SKY/WX    TMP DP  RH WIND       PRES   REMARKS
BEMIDJI        CLOUDY    62  54  74 W14       30.01R
PARK RAPIDS    CLOUDY    64  55  72 W17       30.04S
WADENA         PTSUNNY   64  54  68 W16G22    30.05S
DETROIT LAKES  PTSUNNY   63  54  72 W13       30.07S
MOORHEAD       PTSUNNY   66  52  59 NW8       30.07S
FERGUS FALLS   CLOUDY    64  55  72 W13       30.09R
ELBOW LAKE     CLOUDY    64  55  72 NW10      30.10S
MORRIS MN      PTSUNNY   68  54  60 W14       30.09S
STAPLES        PTSUNNY   66  54  63 W15       30.05S
WHEATON        CLOUDY    66  55  68 W9        30.12S
$$
  *****  WEATHER ELSEWHERE ACROSS MINNESOTA  *****

CITY           SKY/WX    TMP DP  RH WIND       PRES   REMARKS
DULUTH         PTSUNNY   67  54  63 W20G26    29.98R
INTRNTL FALLS  CLOUDY    66  56  70 W13G20    29.90S
ELY            CLOUDY    64  52  63 W15G21    29.93R
CLOQUET        CLOUDY    64  50  59 W16G23    30.00R
BRAINERD       CLOUDY    65  54  67 SW14      30.04S
HIBBING        CLOUDY    63  53  70 W9        29.97R
ALEXANDRIA     CLOUDY    64  53  67 NW15      30.10S
SAINT CLOUD    CLOUDY    68  54  60 W12       30.07S
MINNEAPOLIS    PTSUNNY   73  55  53 W16G22    30.05F
$$

  *****  WEATHER ACROSS SOUTH DAKOTA  *****

CITY           SKY/WX    TMP DP  RH WIND       PRES   REMARKS
SIOUX FALLS    MOSUNNY   73  55  53 W10G18    30.15S
BROOKINGS      SUNNY     68  53  58 NW20G25   30.14
WATERTOWN      PTSUNNY   67  51  56 W12G20    30.13S
HURON          MOSUNNY   74  49  41 NW9       30.14F
SISSETON         N/A     66  52  60 NW15      30.10S
ABERDEEN       CLOUDY    66  50  56 NW10      30.14F
MITCHELL       SUNNY     73  51  46 NW13      30.15F
PIERRE         MOSUNNY   71  46  40 NW21      30.17F
MOBRIDGE       CLOUDY    63  48  58 NW12      30.17S
RAPID CITY     PTSUNNY   67  41  38 N10       30.25F
$$

  *****  SOME WEATHER IN NEARBY STATES *****

CITY           SKY/WX    TMP DP  RH WIND       PRES   REMARKS
GLASGOW MT     MOSUNNY   71  37  28 W9G16     30.16F
GREAT FALLS MT CLOUDY    66  36  32 VRB5      30.22F
CHEYENNE WY    PTSUNNY   64  43  46 E6G18     30.29F
SCOTTSBLUFF NE MOSUNNY   68  45  43 VRB6      30.27F
OMAHA NE       PTSUNNY   75  61  61 N6        30.13F
DES MOINES IA  CLOUDY    74  61  63 CALM      30.11R
DAVENPORT IA   CLOUDY    75  65  70 W3        30.07F
CHICAGO IL     PTSUNNY   83  63  50 NW5       30.02F
EAU CLAIRE WI  CLOUDY    77  56  48 W17G24    30.01F
LA CROSSE WI   CLOUDY    79  60  52 SW10      30.04F
$$

  *****  SOME NATIONAL WEATHER *****

CITY           SKY/WX    TMP DP  RH WIND       PRES   REMARKS
LA GUARDIA NY  PTSUNNY   84  67  56 S18       30.01F
RALEIGH NC     PTSUNNY   91  67  44 SW5       30.09F HX  94
ATLANTA GA     MOSUNNY   89  71  55 W5        30.13F HX  95
NEW ORLEANS LA CLOUDY    86  77  74 S6        30.05F HX  97
OKLAHOMA CITY  PTSUNNY   91  65  41 S9        30.04F HX  93
ALBUQUERQUE NM CLOUDY    79  45  29 CALM      30.20F
SALT LAKE CITY PTSUNNY   77  31  18 NW13      30.07F
LOS ANGELES CA MOSUNNY   73  60  63 SW13      29.94F
BOISE ID       SUNNY     79  31  17 VRB3      30.07F
SEATTLE WA     MOSUNNY   85  53  33 N14       30.09F
$$

*** WEATHER ACROSS MANITOBA...SASKATCHEWAN AND ONTARIO ***
                ***ONTARIO***

CITY           SKY/WX    TMP DP  RH WIND       PRES   REMARKS
GERALDTON      PTSUNNY   68  59  73 NW12      29.78S
THUNDER BAY    PTSUNNY   77  54  44 W15G22    29.81R
SIOUX LOOKOUT  CLOUDY    59  55  88 N8        29.87R
TORONTO        LGT RAIN  82  68  61 W9        29.90F
BIG TROUT LK   SUNNY     64  52  63 S7        29.84S
PICKLE LAKE    LGT RAIN  54  52  94 NE6       29.88R
DRYDEN         CLOUDY    59  55  88 NW6       29.89R
KENORA         PTSUNNY   61  52  72 N13       29.95R
$$
                *** MANITOBA***

CITY           SKY/WX    TMP DP  RH WIND       PRES   REMARKS
BRANDON        PTSUNNY   72  46  40 N13       30.04F
DAUPHIN        SUNNY     70  43  37 NE3       30.02F
ISLAND LAKE    MOSUNNY   70  50  49 W9        29.88F
PILOT MOUND      N/A     68  39  34 NW13G21     N/A
THE PAS        MOSUNNY   73  50  43 NW10      29.95F
THOMPSON       PTSUNNY   75  52  43 SW8       29.86F
WINNIPEG       PTSUNNY   68  52  56 NW10G20   29.99S
LYNN LAKE      MOSUNNY   73  45  35 MISG      29.87F
CHURCHILL      CLOUDY    54  52  94 N14       29.83S
GILLAM         PTSUNNY   73  52  46 W7        29.81F
$$
                ***SASKATCHEWAN***

CITY           SKY/WX    TMP DP  RH WIND       PRES   REMARKS
ESTEVAN        MOSUNNY   72  43  35 NW12G17   30.10F
KINDERSLEY     TSTM      54  50  87 W14G25    30.13S
LLOYDMINSTER   CLOUDY    64  52  63 NW17G25   30.06F
PRINCE ALBERT  PTSUNNY   75  46  35 SW8       30.02F
REGINA         PTSUNNY   72  43  35 NW9       30.09F
YORKTON        MOSUNNY   70  48  46 CALM      30.06F   C1F1C2F2C3F3C4F4C5F5C6F6C7F7C8F8C9F9CaFaCbFbCcFcCdFdCe!



USA.gov is the U.S. government's official web portal to all federal, state and local government web resources and services.